This is the latest recevied weather packets stored in our database for station/object KC5DAQ-29. If no packets are shown the sender has not sent any weather packets the latest 10 day(s).
| Time | Temp. | Humidity | Pressure | Rain* | Wind** | Luminosity | Snow |
|---|---|---|---|---|---|---|---|
| 1777509422 | 27.22° C | 100% | 1006.4 hPa | 0 mm | - | 26 W/m² | - |
| 1777509364 | 27.22° C | 100% | 1006.4 hPa | 0 mm | - | 28 W/m² | - |
| 1777509303 | 27.22° C | 100% | 1006.5 hPa | 0 mm | - | 28 W/m² | - |
| 1777509243 | 27.22° C | 100% | 1006.6 hPa | 0 mm | - | 39 W/m² | - |
| 1777509184 | 27.22° C | 100% | 1006.6 hPa | 0 mm | - | 39 W/m² | - |
| 1777509122 | 27.22° C | 100% | 1006.6 hPa | 0 mm | - | 39 W/m² | - |
| 1777509064 | 27.22° C | 100% | 1006.5 hPa | 0 mm | - | 39 W/m² | - |
| 1777509004 | 27.22° C | 100% | 1006.5 hPa | 0 mm | - | 60 W/m² | - |
| 1777508942 | 27.22° C | 100% | 1006.5 hPa | 0 mm | - | 60 W/m² | - |
| 1777508884 | 27.22° C | 100% | 1006.6 hPa | 0 mm | - | 60 W/m² | - |
| 1777508824 | 27.22° C | 100% | 1006.4 hPa | 0 mm | - | 60 W/m² | - |
| 1777508763 | 27.22° C | 100% | 1006.4 hPa | 0 mm | - | 60 W/m² | - |
| 1777508691 | 27.22° C | 100% | 1006.4 hPa | 0 mm | - | 60 W/m² | - |
| 1777508630 | 27.22° C | 100% | 1006.3 hPa | 0 mm | - | 63 W/m² | - |
| 1777508557 | 27.22° C | 100% | 1006.3 hPa | 0 mm | - | 65 W/m² | - |
| 1777508497 | 27.22° C | 100% | 1006.3 hPa | 0 mm | - | 104 W/m² | - |
| 1777508437 | 27.22° C | 100% | 1006.2 hPa | 0 mm | - | 104 W/m² | - |
| 1777508375 | 27.22° C | 100% | 1006.3 hPa | 0 mm | - | 104 W/m² | - |
| 1777508316 | 27.22° C | 100% | 1006.3 hPa | 0 mm | - | 104 W/m² | - |
| 1777508255 | 27.22° C | 100% | 1006.3 hPa | 0 mm | - | 104 W/m² | - |
| 1777508196 | 27.22° C | 100% | 1006.4 hPa | 0 mm | - | 104 W/m² | - |
| 1777508135 | 27.22° C | 100% | 1006.4 hPa | 0 mm | - | 104 W/m² | - |
| 1777508075 | 27.78° C | 100% | 1006.5 hPa | 0 mm | - | 121 W/m² | - |
| 1777508015 | 27.78° C | 100% | 1006.6 hPa | 0 mm | - | 121 W/m² | - |
| 1777507956 | 27.78° C | 100% | 1006.5 hPa | 0 mm | - | 121 W/m² | - |
* Rain latest hour (hover to see other rain measurements)
** Current wind speed in m/s (hover to see current wind gust speed)